Погода в Китунькине

Россия / Пензенская область     52°34′50″N   46°00′56″E
темп.,
°C
ветер,
м/с
пор.,
м/с
влажн.,
%
обл.,
%
осадки,
мм/ч
давл.,
гПа
погр.,
м
12 апреля, пн
пн1200:00+7св379485 0.0 1029116
03:00+6св469399 0.0 102991
06:00+6всв369392 0.0 103090
09:00+11в477611 0.0 1031224
12:00+17вюв685798 0.0 1031541
15:00+18вюв68506 0.0 1031880
18:00+15в5106496 0.0 1030225
21:00+12вюв4127599 0.0 1032210
13 апреля, вт
вт1300:00+10вюв477236 0.0 1032109
03:00+8вюв467289 0.0 103378
06:00+7вюв497355 0.0 1033131
09:00+12вюв69545 0.0 1033351
12:00+16юв68381 0.0 1032791
15:00+18юв67325 0.0 10301088
18:00+15вюв494838 0.0 1029185
21:00+10вюв4125618 0.0 1030205
14 апреля, ср
ср1400:00+8вюв49655 0.0 1029141
03:00+7вюв48701 0.0 1029108
06:00+6вюв410710 0.0 1028163
09:00+12вюв610560 0.0 1027409
12:00+16юв78430 0.0 1025973
15:00+17юв68384 0.0 10231354
18:00+15вюв47510 0.0 1022165
21:00+11вюв48690 0.0 1023127
15 апреля, чт
чт1500:00+9вюв46800 0.0 102287
03:00+8вюв34830 0.0 102155
06:00+8вюв34830 0.0 102158
09:00+14вюв45610 0.0 1020344
12:00+18вюв44445 0.0 1019895
15:00+19юв44402 0.0 10171367
18:00+17вюв335358 0.0 101738
21:00+13в336498 0.0 101732
16 апреля, пт
пт1600:00+11в336866 0.0 101618
03:00+10в2270100 0.0 101610
06:00+10всв2271100 0.0 101619
09:00+14в235393 0.0 1016283
12:00+18всв234053 0.0 10161420
15:00+19св34355 0.0 10152337
18:00+16с365190 0.0 1015146
21:00+13всв376566 0.0 1016124